Whitefield, NH

4:42 AM EST on February 06, 2016 (GMT -0500)
Mount Washington Regional

Weather History for KHIE - May, 2013

Change the Weather History Date:

Sunday, May 12, 2013

  Actual Average Record
Temperature  
Mean Temperature 51 °F -  
Max Temperature 63 °F 62 °F 81 °F (2004)
Min Temperature 41 °F 33 °F 23 °F (1999)
Degree Days  
Heating Degree Days 14    
Growing Degree Days 1 (Base 50)    
Moisture  
Dew Point 45 °F    
Average Humidity 75    
Maximum Humidity 94    
Minimum Humidity 49    
Precipitation  
Precipitation 0.02 in - - ()
Sea Level Pressure  
Sea Level Pressure 29.65 in    
Wind  
Wind Speed 2 mph (West)    
Max Wind Speed 12 mph    
Max Gust Speed -    
Visibility 9 miles    
Events Rain    
Averages and records for this station are not official NWS values.
T = Trace of Precipitation, MM = Missing Value Source: NWS Daily Summary

Daily Weather History Graph

Daily Weather History Graph

Search for Another Location

Airport or City:

Trip Planner

Search our weather history database for the weather conditions in past years. The results will help you decide how hot, cold, wet, or windy it might be!

Date:

Astronomy

May. 12, 2013 Rise Set
Actual Time 5:22 AM EDT 8:03 PM EDT
Civil Twilight 4:48 AM EDT 8:37 PM EDT
Nautical Twilight 4:06 AM EDT 9:19 PM EDT
Astronomical Twilight 3:18 AM EDT 10:07 PM EDT
Moon 7:13 AM EDT (5/12) 10:29 PM EDT (5/12)
Length of Visible Light 15h 48m
Length of Day
14h 41m
Waxing Crescent, 6% of the Moon is Illuminated
May 12
Waxing Crescent
May 18
First Quarter
May 25
Full
May 31
Last Quarter
Jun 8
New

Hourly Weather History & Observations

Time (EDT) Temp. Windchill Dew Point Humidity Pressure Visibility Wind Dir Wind Speed Gust Speed Precip Events Conditions
12:52 AM 55.0 °F - 53.1 °F 93% 29.69 in 10.0 mi Calm Calm - 0.01 in   Overcast
1:35 AM 55.4 °F - 53.6 °F 94% 29.67 in 10.0 mi Calm Calm - N/A   Overcast
1:52 AM 55.0 °F - 52.0 °F 89% 29.67 in 10.0 mi Calm Calm - N/A   Overcast
2:43 AM 55.4 °F - 51.8 °F 88% 29.66 in 10.0 mi Calm Calm - 0.00 in   Overcast
2:52 AM 55.0 °F - 52.0 °F 89% 29.65 in 10.0 mi Calm Calm - 0.00 in   Overcast
3:32 AM 53.6 °F - 50.0 °F 88% 29.64 in 9.0 mi North 4.6 mph - N/A   Overcast
3:52 AM 54.0 °F - 50.0 °F 86% 29.66 in 6.0 mi Calm Calm - N/A   Overcast
4:02 AM 53.6 °F - 50.0 °F 88% 29.65 in 7.0 mi Calm Calm - N/A   Overcast
4:19 AM 53.6 °F - 50.0 °F 88% 29.65 in 3.0 mi Calm Calm - 0.00 in Rain Light Rain
4:50 AM 53.6 °F - 50.0 °F 88% 29.64 in 5.0 mi Calm Calm - 0.00 in   Overcast
4:52 AM 53.1 °F - 50.0 °F 89% 29.65 in 6.0 mi Calm Calm - 0.00 in   Overcast
5:52 AM 53.1 °F - 50.0 °F 89% 29.66 in 10.0 mi Calm Calm - N/A   Overcast
6:08 AM 53.6 °F - 50.0 °F 88% 29.65 in 10.0 mi Calm Calm - N/A   Overcast
6:52 AM 53.1 °F - 50.0 °F 89% 29.65 in 10.0 mi Calm Calm - N/A   Overcast
7:52 AM 54.0 °F - 50.0 °F 86% 29.65 in 10.0 mi Calm Calm - N/A   Overcast
8:52 AM 55.9 °F - 50.0 °F 80% 29.65 in 10.0 mi SW 3.5 mph - N/A   Overcast
9:04 AM 55.4 °F - 50.0 °F 82% 29.63 in 10.0 mi Variable 3.5 mph - N/A   Overcast
9:48 AM 57.2 °F - 48.2 °F 72% 29.62 in 10.0 mi WSW 6.9 mph - N/A   Overcast
9:52 AM 57.0 °F - 46.9 °F 69% 29.63 in 10.0 mi West 6.9 mph - N/A   Overcast
10:52 AM 57.9 °F - 48.0 °F 70% 29.61 in 10.0 mi South 4.6 mph - N/A   Overcast
11:52 AM 60.1 °F - 42.1 °F 51% 29.60 in 10.0 mi Variable 5.8 mph - N/A   Overcast
12:52 PM 57.9 °F - 44.1 °F 60% 29.59 in 10.0 mi WNW 4.6 mph - N/A   Overcast
1:52 PM 61.0 °F - 42.1 °F 50% 29.57 in 10.0 mi West 5.8 mph - 0.01 in   Overcast
2:52 PM 59.0 °F - 39.9 °F 49% 29.58 in 10.0 mi West 9.2 mph - N/A   Overcast
3:52 PM 57.9 °F - 39.9 °F 51% 29.59 in 10.0 mi West 9.2 mph - N/A   Overcast
4:52 PM 53.1 °F - 39.9 °F 61% 29.63 in 10.0 mi WNW 11.5 mph - N/A   Overcast
5:52 PM 51.1 °F - 39.9 °F 66% 29.66 in 10.0 mi NW 4.6 mph - 0.00 in Rain Light Rain
6:52 PM 51.1 °F - 37.0 °F 59% 29.68 in 10.0 mi Calm Calm - 0.00 in   Mostly Cloudy
7:52 PM 48.9 °F - 41.0 °F 74% 29.68 in 10.0 mi Calm Calm - N/A   Overcast
8:52 PM 46.0 °F - 33.1 °F 61% 29.71 in 10.0 mi Calm Calm - N/A   Mostly Cloudy
9:52 PM 44.1 °F 42.5 °F 32.0 °F 63% 29.73 in 10.0 mi West 3.5 mph - N/A   Scattered Clouds
10:52 PM 41.0 °F 37.1 °F 30.9 °F 67% 29.74 in 10.0 mi SSW 5.8 mph - N/A   Clear
11:52 PM 41.0 °F 39.0 °F 27.0 °F 57% 29.75 in 10.0 mi SSW 3.5 mph - N/A   Partly Cloudy